Tracking 19149 objects as of 20-Apr-2018
HD Live streaming from Space Station
objects crossing your sky now

METEOSAT 9 (MSG 2)

Track METEOSAT 9 (MSG 2) now!
METEOSAT 9 (MSG 2) is classified as:


NORAD ID: 28912
Int'l Code: 2005-049B
Perigee: 35,787.1 km
Apogee: 35,798.3 km
Inclination: 2.8 °
Period: 1,436.0 minutes
Semi major axis: 42163 km
RCS: 2.0767 m2 (large)
Launch date: December 21, 2005
Source: European Organisation for the Exploitation of Meteorological Satellites (EUME)
Launch site: FRENCH GUIANA (FRGUI)
aabbcc
Your satellite tracking list
Your tracking list is empty




NASA's NSSDC Master Catalog

Two Line Element Set (TLE):
1 28912U 05049B   18110.32415355  .00000009  00000-0  00000+0 0  9997
2 28912   2.8089  71.6364 0001335 291.6567 325.1068  1.00275492 45190
Source of the keplerian elements: AFSPC